TimeCDT,TemperatureF,Dew PointF,Humidity,Sea Level PressureIn,VisibilityMPH,Wind Direction,Wind SpeedMPH,Gust SpeedMPH,PrecipitationIn,Events,Conditions,WindDirDegrees,DateUTC
12:53 AM,82.9,68.0,60,30.02,10.0,ESE,9.2,-,N/A,,Clear,120,2013-08-25 05:53:00
1:53 AM,80.1,69.1,69,30.03,10.0,Calm,Calm,-,N/A,,Clear,0,2013-08-25 06:53:00
2:53 AM,80.1,70.0,71,30.04,10.0,Calm,Calm,-,N/A,,Clear,0,2013-08-25 07:53:00
3:53 AM,79.0,71.1,77,30.04,10.0,Calm,Calm,-,N/A,,Clear,0,2013-08-25 08:53:00
4:53 AM,78.1,70.0,76,30.04,10.0,ENE,3.5,-,N/A,,Clear,60,2013-08-25 09:53:00
5:53 AM,77.0,71.1,82,30.06,10.0,ENE,4.6,-,N/A,,Clear,60,2013-08-25 10:53:00
6:53 AM,75.9,70.0,82,30.06,10.0,NE,5.8,-,N/A,,Clear,50,2013-08-25 11:53:00
7:53 AM,77.0,71.1,82,30.06,10.0,NE,9.2,-,N/A,,Clear,40,2013-08-25 12:53:00
8:53 AM,80.1,72.0,76,30.08,10.0,NE,10.4,-,N/A,,Partly Cloudy,40,2013-08-25 13:53:00
8:59 AM,78.8,71.6,78,30.10,10.0,ENE,11.5,-,N/A,,Mostly Cloudy,60,2013-08-25 13:59:00
9:53 AM,82.0,72.0,71,30.08,10.0,NE,10.4,-,N/A,,Mostly Cloudy,40,2013-08-25 14:53:00
10:00 AM,82.4,71.6,70,30.10,10.0,ENE,10.4,-,N/A,,Partly Cloudy,70,2013-08-25 15:00:00
10:51 AM,84.2,71.6,66,30.10,10.0,East,11.5,-,N/A,,Mostly Cloudy,80,2013-08-25 15:51:00
10:53 AM,84.9,72.0,65,30.09,10.0,ENE,11.5,-,N/A,,Mostly Cloudy,70,2013-08-25 15:53:00
11:53 AM,87.1,72.0,61,30.08,10.0,NE,10.4,-,N/A,,Mostly Cloudy,50,2013-08-25 16:53:00
12:53 PM,89.1,71.1,55,30.07,10.0,East,11.5,-,N/A,,Mostly Cloudy,90,2013-08-25 17:53:00
1:53 PM,93.0,70.0,47,30.06,10.0,East,9.2,18.4,N/A,,Partly Cloudy,90,2013-08-25 18:53:00
2:53 PM,93.9,68.0,43,30.04,10.0,East,11.5,24.2,N/A,,Mostly Cloudy,80,2013-08-25 19:53:00
3:53 PM,95.0,66.9,40,30.02,10.0,ESE,9.2,-,N/A,,Mostly Cloudy,110,2013-08-25 20:53:00
4:53 PM,95.0,68.0,41,30.01,10.0,East,12.7,-,N/A,,Scattered Clouds,90,2013-08-25 21:53:00
5:53 PM,95.0,64.9,37,30.00,10.0,East,13.8,20.7,N/A,,Clear,90,2013-08-25 22:53:00
6:53 PM,93.0,64.9,39,30.00,10.0,ESE,12.7,-,N/A,,Clear,110,2013-08-25 23:53:00
7:53 PM,89.1,66.9,48,30.02,10.0,SE,6.9,-,N/A,,Clear,130,2013-08-26 00:53:00
8:53 PM,87.1,70.0,57,30.04,10.0,ESE,13.8,-,N/A,,Partly Cloudy,120,2013-08-26 01:53:00
9:53 PM,84.0,71.1,65,30.07,10.0,ESE,8.1,-,N/A,,Clear,120,2013-08-26 02:53:00
10:53 PM,82.9,71.1,67,30.08,10.0,ESE,8.1,-,N/A,,Clear,120,2013-08-26 03:53:00
11:53 PM,81.0,70.0,69,30.09,10.0,ESE,10.4,-,N/A,,Clear,110,2013-08-26 04:53:00